Location: Aranbee
(34.0885°N, 118.2342°W)
Time: 09:46:55
(UTC+00:00)

Courier 1B Rocket - Pass Details

Date: 27 November 2020
Orbit: 920 x 1202 km, 28.2° (Epoch: 27 January)

Event Time Altitude Azimuth Distance (km) Brightness Sun altitude
Rises 11:01:15 0° 196° (SSW) 4,050 - -44.3°
Reaches altitude 10° 11:06:40 10° 165° (SSE) 3,118 - -43.1°
Exits shadow 11:07:15 11° 161° (SSE) 3,072 7.7 -43.0°
Maximum altitude 11:08:57 11° 148° (SSE) 3,014 7.8 -42.7°
Drops below altitude 10° 11:11:14 10° 131° (SE) 3,126 8.0 -42.2°
Sets 11:16:40 0° 100° (E) 4,075 9.1 -41.1°
